www.pogodaiklimat.ru

Погода и климат >> Архив погоды >> Таиланд >> Самутрудкан Агромет


ПОГОДА в Самутрудкан Агромете

  • Прогноз погоды в Самутрудкан Агромете
  • Монитор погоды в Самутрудкан Агромете

АРХИВ ПОГОДЫ в Самутрудкан Агромете

Время (UTC), дата Ветер
(напр.,м/с)
 
Видим.   Явления Облачность Т
(С)
Тd
(С)
f
(%)
Тe
(С)
Тes
(С)
Комфортность P
(гПа)
Po
(гПа)
Тmin
(С)
Tmax
(С)
R
(мм)
R24
(мм)
S
(см)
12 9.07 ЮЗ 8 10 км 8/3 600 м
[Sc Ac trans Cs]
+30.0 +25.0 75 +43 +43 опасность
перегрева
1006.5 1006.1 +32.2
15 9.07 ЮЗ 3 6000 м гроза, ливневой дождь 10/3 300 м
[Cb cap Ac As Cs]
+25.0 +23.2 90 +33 +33 очень
душно
1009.2 1008.7 17
18 9.07 штиль 0 9000 м дымка {гроза} 9/3 600 м
[Sc Ac und Cs]
+26.5 +25.4 94 +39 +39 очень
душно
1008.7 1008.3 0.0
21 9.07 ЮЗ 3 9000 м дымка 9/1 600 м
[Sc Cs]
+27.2 +24.2 84 +38 +38 очень
душно
1007.7 1007.3
00 10.07 ЮЗ 5 10 км 8/0
[Ac trans Cs]
+28.5 +23.9 76 +39 +40 очень
душно
1008.6 1008.2 +24.5
03 10.07 ЮЗ 10 10 км 10/0
[Ac lent Cs]
+30.5 +23.9 68 +42 +42 опасность
перегрева
1009.8 1009.3
06 10.07 ЮЗ 8 10 км 10/3 600 м
[Cu med, cong Ac trans Cs]
+31.5 +24.4 66 +44 +45 опасность
перегрева
1008.6 1008.1
09 10.07 ЮЗ 8 10 км 10/3 600 м
[Sc Ac und Cs]
+30.9 +23.9 66 +42 +43 опасность
перегрева
1007.0 1006.5
12 10.07 ЮЗ 6 10 км 10/1 600 м
[Cu med, cong Ac lent Cs]
+29.9 +23.8 70 +41 +41 опасность
перегрева
1007.4 1006.9 +31.8
15 10.07 ЮЗ 8 10 км 10/1 600 м
[Cu med, cong Ac lent Cs]
+29.5 +25.1 77 +43 +43 опасность
перегрева
1009.5 1009.1
18 10.07 ЮЗ 3 10 км 10/3 600 м
[Cu med, cong Ac trans Cs]
+29.4 +26.6 85 +45 +45 опасность
перегрева
1008.9 1008.5
21 10.07 ЮЗ 2 10 км 9/1 600 м
[Cu med, cong Ac lent Cs]
+27.9 +23.7 78 +38 +38 очень
душно
1008.9 1008.5
00 11.07 штиль 0 10 км 9/1 600 м
[Cu med, cong Ac trans Cs]
+27.5 +24.5 84 +39 +40 очень
душно
1010.5 1010.1 +26.9
03 11.07 ЮЗ 7 10 км 8/1 600 м
[Sc Ac trans Cs]
+31.9 +23.2 60 +42 +45 опасность
перегрева
1011.3 1010.9
06 11.07 ЮЗ 10 10 км 8/1 600 м
[Sc Cs]
+31.6 +23.5 62 +42 +43 опасность
перегрева
1010.0 1009.5
09 11.07 ЮЗ 10 10 км 8/1 600 м
[Sc Ac trans Cs]
+31.1 +23.0 62 +41 +41 опасность
перегрева
1008.5 1008.1
12 11.07 ЮЗ 4 10 км 6/1 600 м
[Sc Cs]
+30.0 +23.2 67 +40 +40 очень
душно
1008.5 1008.1 +32.6
15 11.07 ЮЗ 6 10 км 6/1 600 м
[Sc Cs]
+29.9 +24.6 73 +42 +42 опасность
перегрева
1010.1 1009.7
18 11.07 ЮЗ 8 10 км 6/1 600 м
[Cu hum Cs]
+29.5 +25.2 78 +43 +43 опасность
перегрева
1010.1 1009.6
21 11.07 ЮЗ 3 10 км 6/1 600 м
[Sc Cs]
+29.3 +25.3 79 +43 +43 опасность
перегрева
1009.3 1008.8
00 12.07 штиль 0 10 км 5/1 600 м
[Sc Cs]
+27.8 +23.1 76 +37 +39 очень
душно
1010.1 1009.6 +26.2
03 12.07 ЮЗ 6 10 км 5/0
[Cs]
+32.2 +23.2 59 +43 +48 опасность
перегрева
1011.1 1010.7
06 12.07 ЮЗ 9 10 км 6/1 600 м
[Sc Cs]
+31.6 +23.7 63 +43 +45 опасность
перегрева
1009.0 1008.5
09 12.07 ЮЗ 8 10 км 6/1 600 м
[Sc Cs]
+31.6 +23.8 63 +43 +44 опасность
перегрева
1007.1 1006.6
12 12.07 ЮЗ 7 10 км 6/1 600 м
[Sc Ac trans Cs]
+30.4 +24.1 69 +42 +42 опасность
перегрева
1007.1 1006.7 +32.5
15 12.07 ЮЗ 9 10 км 8/3 600 м
[Sc Ac trans Cs]
+30.1 +24.8 73 +43 +43 опасность
перегрева
1009.5 1009.1
18 12.07 ЮЗ 8 10 км 8/3 600 м
[Sc Ac trans Cs]
+30.1 +26.5 81 +46 +46 опасность
перегрева
1009.5 1009.0
21 12.07 штиль 0 9000 м дымка {гроза} 8/3 600 м
[Sc Ac trans Cs]
+25.9 +24.6 93 +37 +37 очень
душно
1008.7 1008.3 9
00 13.07 ЮЗ 3 10 км {гроза} 6/3 600 м
[Sc Ac trans Cs]
+27.0 +24.8 88 +39 +39 очень
душно
1009.7 1009.2 +24.8 9
03 13.07 ЮЗ 3 10 км 5/1 600 м
[Cu med, cong Cs]
+31.0 +24.3 68 +43 +54 опасность
перегрева
1010.4 1010.0
06 13.07 ЮЗ 10 10 км 6/1 600 м
[Cu med, cong Ac trans Cs]
+31.6 +24.0 64 +43 +44 опасность
перегрева
1008.4 1007.9
09 13.07 ЮЗ 10 10 км 6/1 600 м
[Cu med, cong Cs]
+31.5 +24.4 66 +44 +44 опасность
перегрева
1005.9 1005.5
12 13.07 ЮЗ 6 10 км 10/3 600 м
[Sc Ac und Cs]
+30.5 +24.7 71 +43 +43 опасность
перегрева
1006.1 1005.7 +32.3
15 13.07 ЮЗ 6 10 км 10/3 600 м
[Sc Ac und Cs]
+30.3 +25.5 76 +45 +45 опасность
перегрева
1008.9 1008.5
18 13.07 ЮЗ 6 10 км 9/3 600 м
[Sc Ac trans Cs]
+29.2 +23.1 70 +39 +39 очень
душно
1008.6 1008.1
21 13.07 ЮЗ 4 10 км 8/1 600 м
[Cu med, cong Ac trans Cs]
+28.1 +23.3 75 +38 +38 очень
душно
1007.5 1007.0
00 14.07 ЮЗ 6 10 км 8/1 600 м
[Cu med, cong Ac trans Cs]
+28.4 +23.5 75 +39 +39 очень
душно
1007.4 1006.9 +27.5
03 14.07 ЮЗ 6 10 км 8/1 600 м
[Cu med, cong Ac trans Cs]
+31.7 +25.0 68 +45 +49 опасность
перегрева
1008.6 1008.1
06 14.07 ЮЗ 9 10 км 6/1 600 м
[Cu hum Ac trans Cs]
+32.2 +25.3 67 +46 +48 опасность
перегрева
1007.4 1006.9
09 14.07 Ю 6 10 км 5/3 600 м
[Cu hum Ac trans Cs]
+31.8 +25.0 67 +45 +47 опасность
перегрева
1005.0 1004.6
12 14.07 ЮЗ 5 10 км 6/3 600 м
[Cu hum Ac trans Cs]
+31.0 +25.0 70 +44 +44 опасность
перегрева
1005.2 1004.8 +32.2
15 14.07 ЮЗ 5 10 км 6/3 600 м
[Cu hum Ac trans Cs]
+29.2 +26.1 83 +44 +44 опасность
перегрева
1007.0 1006.5
18 14.07 Ю 5 10 км 6/3 600 м
[Cu hum Ac trans Cs]
+28.9 +25.9 84 +43 +43 опасность
перегрева
1006.4 1005.9
21 14.07 штиль 0 10 км 6/3 600 м
[Cu med, cong Ac trans Cs]
+28.5 +26.0 86 +43 +43 опасность
перегрева
1005.3 1004.9
00 15.07 ЮЗ 5 10 км 4/3 600 м
[Cu hum Ac trans Cs]
+28.0 +23.6 77 +38 +39 очень
душно
1006.0 1005.5 +28.0
03 15.07 ЮЗ 8 10 км 6/3 600 м
[Sc Cs]
+31.5 +24.2 65 +43 +45 опасность
перегрева
1006.9 1006.4
06 15.07 ЮЗ 11 10 км 8/3 600 м
[Sc Ac trans Cs]
+31.8 +23.8 63 +43 +43 опасность
перегрева
1005.7 1005.3
09 15.07 ЮЗ 7 10 км 8/3 600 м
[Sc Ac trans Cs]
+31.4 +23.8 64 +43 +44 опасность
перегрева
1003.7 1003.3
12 15.07 ЮЗ 3 6000 м слаб. дождь 10/3 600 м
[Sc Ac As Cs]
+28.4 +25.0 82 +41 +41 опасность
перегрева
1004.6 1004.2 +32.7 0.7
15 15.07 штиль 0 10 км {дождь} 8/3 600 м
[Sc Ac trans Cs]
+27.5 +25.9 91 +41 +41 опасность
перегрева
1006.3 1005.9 0.3
18 15.07 ЮЗ 4 10 км {дождь} 8/3 600 м
[Sc Ac trans Cs]
+26.8 +25.4 92 +39 +39 очень
душно
1005.9 1005.5 1
21 15.07 ЮЗ 3 10 км 5/1 600 м
[Sc Cs]
+26.8 +24.0 85 +37 +37 очень
душно
1005.1 1004.6
00 16.07 ЮЗ 1 10 км 3/1 600 м
[Sc Ac lent Cs]
+27.8 +24.3 81 +39 +40 очень
душно
1005.9 1005.5 +26.1
03 16.07 ЮЗ 8 10 км 5/1 600 м
[Cu hum Ac trans Cs]
+31.0 +24.6 69 +44 +46 опасность
перегрева
1006.5 1006.1
06 16.07 ЮЗ 10 10 км 5/1 600 м
[Cu hum Ac lent Cs]
+31.7 +24.7 67 +45 +46 опасность
перегрева
1005.3 1004.9
09 16.07 ЮЗ 8 10 км 3/1 600 м
[Cu hum Cs]
+31.8 +25.0 67 +45 +46 опасность
перегрева
1002.5 1002.1

 

Местоположение метеостанции Самутрудкан Агромет (Таиланд): широта 13.52 долгота 100.75 высота над уровнем моря 3 м.

В архиве по умолчанию представлена погода в Самутрудкан Агромете за последнюю неделю. Архивные данные за месяц целиком и за предыдущие месяцы, начиная с января 2011 года, Вы можете получить, выбрав интересующий диапазон дат из раскрывающегося списка и нажав кнопку "Ввод!".


*Определитесь, кто Вы:
робот инопланетянин человек

Внимание! Время в таблицах - всемирное. Для получения местного времени необходимо прибавить поправку, которая равна 7 ч.

Смотрите также архив погоды в соседних городах и на ближайших метеорологических станциях:

Погода в Аэропорту Суварнабхуми (Таиланд) (18 км)
Погода в Бангна Агромете (Таиланд) (22 км)
Погода в Бангкок Пилот (Таиланд) (22 км)
Погода в Бангкоке 2 (Таиланд) (28 км)
Погода в Чонбури (Таиланд) (30 км)
Погода в Ратбури (Таиланд) (30 км)
Погода в Бангкоке (Таиланд) (31 км)
Погода на Ко Сичан (Таиланд) (39 км)
Погода в Дон Муанг (Таиланд) (47 км)
Погода в Патхумтхани (Таиланд) (66 км)

Пояснения к столбцам:

Ветер - указаны скорость ветра в м/с - средняя за 10 мин, порывы в срок и между сроками (в фигурных скобках) и направление, откуда дует ветер: С - северный, СВ - северо-восточный, В - восточный, ЮВ - юго-восточный, Ю - южный, ЮЗ - юго-западный, З - западный, СЗ - северо-западный.
Видимость - горизонтальная дальность видимости в метрах или километрах. При видимости от 1 до 10 км при отсутствии осадков обычно наблюдается дымка, при ухудшении видимости до 1 км и менее - туман. В сухую погоду видимость может ухудшаться дымом, пылью или мглою.
Явления - указаны атмосферные явления, наблюдавшиеся в срок или в последний час перед сроком; фигурными скобками обозначены явления, наблюдавшиеся между сроками (за 1-3 часа до срока); квадратными скобками обозначены град или гололедные отложения с указанием их диаметра в мм.
Облачность - указаны через наклонную черту общая и нижняя облачность в баллах и высота нижней границы облаков в метрах; квадратными скобками обозначены формы облаков: Ci - перистые, Cs - перисто-слоистые, Cc - перисто-кучевые, Ac - высококучевые, As - высокослоистые, Sc - слоисто-кучевые, Ns - слоисто-дождевые, Cu - кучевые, Cb - кучево-дождевые. Подробнее классификацию облаков см. в Атласе облаков (PDF).
T - Температура воздуха - температура, измеренная на высоте 2 м над землей.
Td - Температура точки росы - температура, при понижении до которой содержащийся в воздухе водяной пар достигнет насыщения.
f - Относительная влажность воздуха - влажноcть воздуха, измеренная на высоте 2 м над землей.
Te - Эффективная температура - температура, которую ощущает одетый по сезону человек в тени. Характеристика душности погоды. При расчете учитывается влияние влажности воздуха и скорости ветра на теплоощущения человека.
Tes - Эффективная температура на солнце - температура, которую ощущает человек, с поправкой на солнечный нагрев. Характеристика знойности погоды. Зависит от высоты солнца над горизонтом, облачности и скорости ветра. Ночью, в пасмурную погоду, а также при ветре 12 м/с и более поправка равна нулю.
P - Атмосферное давление - приведенное к уровню моря атмосферное давление.
Po - Атмосферное давление - измеренное на уровне метеостанции атмосферное давление.
Tmin - Минимальная температура - минимум температуры воздуха на высоте 2 м над землей.
Tmax - Максимальная температура - максимум температуры воздуха на высоте 2 м над землей.
R - Количество осадков - Количество выпавших осадков за период времени, мм. При наведении курсора мыши на число - период времени, за который выпало указанное количество осадков.
R24 - Количество осадков - Количество выпавших осадков за 24 часа, мм.
S - Снежный покров - Высота снежного покрова, см. При наведении курсора мыши на число - состояние снежного покрова и степень покрытия местности в баллах.